[[{"header":{"parameterUnit":"m.s-1","parameterCategory":1,"la1":30.2991,"la2":30.254,"lo1":-89.0895,"lo2":-89.0444,"dy":0.0017,"dx":0.0017,"nx":28,"ny":28,"refTime":"2024-10-01T03:00:00:Z","depth":0,"parameterNumber":2,"parameterNumberName":"U-component_of_WINDS"},"data":[0,0,0,0,0,0,0,0,0,0,0,0,0,0,0,0,0,0,0,0,0,0,0,0,0,0,0,0,0,0,0,0,0,0,0,0,0,0,0,0,0,0,0,0,0,0,0,0,0,0,0,0,0,0,0,0,0,0,-2.5383,-2.5384,0,-2.5404,-2.5404,-2.5404,-2.5375,-2.5374,-2.5373,-2.5372,-2.5392,-2.5394,-2.5395,0,0,0,0,0,0,0,0,0,0,0,0,0,-2.5318,-2.5319,-2.5383,-2.5384,-2.5384,-2.5404,-2.5404,-2.5404,-2.5375,-2.5374,-2.5373,-2.5371,-2.5392,-2.5393,-2.5395,0,0,0,0,0,0,0,0,0,0,0,0,0,-2.5343,-2.532,-2.5383,-2.5372,-2.5371,-2.5404,-2.5404,-2.5404,-2.5375,-2.5374,-2.5372,-2.5371,-2.5391,-2.5393,-2.5396,-2.5441,0,0,-2.5402,-2.5403,0,0,0,0,0,0,0,0,-2.5342,-2.5346,-2.5373,-2.5373,-2.5372,-2.5385,-2.5388,-2.5417,-2.5376,-2.5374,-2.5372,-2.537,-2.5391,-2.5393,-2.5401,-2.5442,-2.5443,-2.5403,-2.5404,-2.5405,-2.5406,0,0,0,0,0,0,0,-2.534,-2.5345,-2.5391,-2.5374,-2.5373,-2.5365,-2.5367,-2.5394,-2.5391,-2.5374,-2.5372,-2.5374,-2.539,-2.5398,-2.5401,-2.5443,-2.5403,-2.5405,-2.5406,-2.5407,-2.5522,-2.5524,0,0,0,0,0,0,-2.534,-2.5343,-2.5391,-2.5392,-2.5353,-2.5368,-2.537,-2.5382,-2.539,-2.539,-2.5376,-2.5373,-2.5395,-2.5398,-2.5401,-2.5455,-2.5405,-2.5407,-2.5408,-2.552,-2.5523,-2.5524,0,0,0,0,0,0,-2.5339,-2.5344,-2.539,-2.5367,-2.5372,-2.537,-2.5385,-2.5384,-2.5392,-2.5392,-2.5391,-2.5385,-2.5394,-2.5398,-2.5431,-2.5456,-2.5408,-2.541,-2.5518,-2.5521,-2.5523,-2.5563,0,0,0,0,0,0,-2.5337,-2.5344,-2.5362,-2.5368,-2.5374,-2.542,-2.5386,-2.5385,-2.5396,-2.5392,-2.54,-2.54,-2.5393,-2.5428,-2.5434,-2.5458,-2.5412,-2.5516,-2.552,-2.5523,-2.556,-2.5567,-2.5573,0,0,0,0,0,-2.5335,-2.5372,-2.5363,-2.5368,-2.5396,-2.5421,-2.5425,-2.5417,-2.5398,-2.5415,-2.5415,-2.54,-2.5452,-2.5432,-2.5438,-2.5463,-2.5515,-2.5519,-2.5522,-2.5557,-2.5565,-2.5573,0,0,0,0,0,0,-2.5368,-2.5372,-2.5362,-2.5402,-2.5412,-2.5416,-2.5438,-2.5426,-2.5441,-2.5437,-2.5426,-2.5428,-2.5463,-2.5466,-2.5444,-2.5507,-2.548,-2.5485,-2.5504,-2.5512,-2.5519,-2.5518,-2.5414,0,0,0,0,0,-2.538,-2.5401,-2.5403,-2.5439,-2.5444,-2.544,-2.5451,-2.5444,-2.5453,-2.5457,-2.546,-2.5469,-2.5487,-2.55,-2.5517,-2.5559,-2.5561,-2.558,-2.5586,-2.5592,-2.5597,-2.562,-2.5628,-2.5537,-2.5537,-2.5537,0,0,-2.5405,-2.541,-2.5424,-2.5446,-2.5452,-2.5474,-2.5444,-2.5468,-2.5484,-2.5461,-2.5492,-2.5494,-2.5504,-2.5542,-2.5559,-2.5546,-2.5622,-2.5597,-2.5601,-2.5603,-2.5625,-2.5633,-2.5641,-2.554,-2.5539,-2.5539,0,0,-2.5463,-2.5468,-2.5499,-2.5506,-2.5516,-2.5513,-2.552,-2.5527,-2.5527,-2.5559,-2.5542,-2.556,-2.5592,-2.56,-2.5608,-2.5668,-2.5654,-2.5673,-2.5708,-2.5731,-2.5738,-2.5745,-2.5767,-2.5775,-2.5678,-2.5678,-2.5678,0,-2.5493,-2.5525,-2.5515,-2.5541,-2.5551,-2.5531,-2.5561,-2.5568,-2.5584,-2.5591,-2.5575,-2.5615,-2.562,-2.566,-2.5675,-2.5682,-2.569,-2.5673,-2.5738,-2.5744,-2.575,-2.5771,-2.5779,-2.5681,-2.568,-2.568,-2.568,0,-2.5562,-2.5585,-2.5608,-2.5624,-2.5636,-2.5664,-2.5658,-2.5672,-2.5663,-2.5662,-2.5695,-2.57,-2.5718,-2.5726,-2.5718,-2.5765,-2.5757,-2.574,-2.5713,-2.5761,-2.5781,-2.5789,-2.5684,-2.5683,-2.5682,-2.5682,0,0,-2.5642,-2.5651,-2.566,-2.5667,-2.5677,-2.5694,-2.5721,-2.5738,-2.5751,-2.5761,-2.5784,-2.5811,-2.5796,-2.5805,-2.5797,-2.5817,-2.5865,-2.5798,-2.5798,-2.5811,-2.5918,-2.5931,-2.5941,-2.5855,-2.5857,-2.5858,-2.5917,0,-2.57,-2.5747,-2.5739,-2.5784,-2.5805,-2.5786,-2.5809,-2.5818,-2.5817,-2.5834,-2.5833,-2.5853,-2.5831,-2.5837,-2.5855,-2.5855,-2.5887,-2.5851,-2.5877,-2.5878,-2.5876,-2.5951,-2.5965,-2.6021,-2.5925,-2.5926,-2.5927,0,-2.5774,-2.5788,-2.5836,-2.5842,-2.5851,-2.5872,-2.5888,-2.5905,-2.5913,-2.5911,-2.5922,-2.591,-2.5937,-2.5909,-2.5945,-2.5921,-2.5931,-2.5932,-2.5934,-2.5937,-2.5906,-2.5957,-2.6039,-2.6047,-2.5939,-2.5938,-2.5937,0,-2.5828,-2.5859,-2.5892,-2.5898,-2.5906,-2.5922,-2.5926,-2.5933,-2.5944,-2.5957,-2.5965,-2.5981,-2.599,-2.6002,-2.5996,-2.5976,-2.6034,-2.6005,-2.6033,-2.6034,-2.6047,-2.6047,-2.6133,-2.6052,-2.6052,-2.6052,-2.6052,0,-2.5895,-2.5925,-2.5917,-2.5937,-2.597,-2.596,-2.5993,-2.5995,-2.6001,-2.6022,-2.6005,-2.6024,-2.6014,-2.6032,-2.6026,-2.6058,-2.6062,-2.6061,-2.606,-2.6064,-2.6064,-2.6071,-2.6067,-2.6054,-2.6053,-2.6053,-2.6053,0,-2.5962,-2.5957,-2.5992,-2.5997,-2.5999,-2.6023,-2.6027,-2.6046,-2.6044,-2.6069,-2.6075,-2.6071,-2.6092,-2.6086,-2.6108,-2.6105,-2.6145,-2.6138,-2.6142,-2.6141,-2.617,-2.6168,-2.6265,-2.6277,-2.6187,-2.6188,-2.6189,0,-2.6005,-2.6028,-2.6035,-2.6048,-2.6053,-2.6073,-2.6085,-2.6075,-2.6088,-2.6099,-2.6117,-2.6136,-2.6151,-2.6185,-2.6184,-2.6201,-2.6195,-2.6228,-2.6198,-2.6201,-2.6197,-2.6196,-2.6199,-2.6234,-2.6235,-2.6236,-2.6237,0,-2.6082,-2.6079,-2.6096,-2.6113,-2.6127,-2.614,-2.6151,-2.6162,-2.6153,-2.6168,-2.6189,-2.62,-2.6223,-2.6243,-2.6258,-2.6262,-2.6248,-2.6246,-2.6254,-2.6259,-2.6261,-2.6261,-2.616,-2.6244,-2.6243,-2.6243,-2.6243,-2.6242,-2.6139,-2.6159,-2.6168,-2.6187,-2.6195,-2.6205,-2.6223,-2.6224,-2.6241,-2.6259,-2.6252,-2.6277,-2.6284,-2.6304,-2.6309,-2.6328,-2.6316,-2.6327,-2.633,-2.6333,-2.6337,-2.6257,-2.6331,-2.6331,-2.633,-2.633,-2.633,0,-2.6217,-2.6221,-2.6239,-2.6256,-2.6271,-2.6257,-2.6268,-2.6282,-2.6304,-2.6312,-2.6328,-2.6352,-2.637,-2.6371,-2.6389,-2.6404,-2.6398,-2.6409,-2.6408,-2.6409,-2.6347,-2.6339,-2.6413,-2.6413,-2.6413,-2.6413,-2.6413,-2.6413,-2.6259,-2.6292,-2.629,-2.6326,-2.633,-2.6354,-2.6362,-2.6371,-2.6378,-2.6406,-2.6422,-2.6422,-2.6428,-2.6445,-2.6462,-2.6461,-2.6469,-2.6482,-2.648,-2.6422,-2.6414,-2.6406,-2.6398,-2.6484,-2.6484,-2.6541,-2.6542,-2.6542]},{"header":{"parameterUnit":"m.s-1","parameterCategory":1,"la1":30.2991,"la2":30.254,"lo1":-89.0895,"lo2":-89.0444,"dy":0.0017,"dx":0.0017,"nx":28,"ny":28,"refTime":"2024-10-01T03:00:00:Z","depth":0,"parameterNumber":3,"parameterNumberName":"V-component_of_WINDS"},"data":[0,0,0,0,0,0,0,0,0,0,0,0,0,0,0,0,0,0,0,0,0,0,0,0,0,0,0,0,0,0,0,0,0,0,0,0,0,0,0,0,0,0,0,0,0,0,0,0,0,0,0,0,0,0,0,0,0,0,-3.6452,-3.6452,0,-3.6429,-3.6429,-3.6429,-3.6361,-3.636,-3.6358,-3.6357,-3.6335,-3.6336,-3.6337,0,0,0,0,0,0,0,0,0,0,0,0,0,-3.6439,-3.644,-3.6452,-3.6452,-3.6451,-3.6429,-3.6429,-3.6428,-3.6361,-3.636,-3.6358,-3.6356,-3.6335,-3.6336,-3.6337,0,0,0,0,0,0,0,0,0,0,0,0,0,-3.6433,-3.644,-3.6452,-3.6415,-3.6412,-3.6429,-3.6429,-3.6428,-3.6362,-3.636,-3.6357,-3.6355,-3.6335,-3.6336,-3.6337,-3.6389,0,0,-3.6341,-3.6341,0,0,0,0,0,0,0,0,-3.6434,-3.6434,-3.6421,-3.6418,-3.6414,-3.6396,-3.6416,-3.6415,-3.6362,-3.6381,-3.6357,-3.6354,-3.6357,-3.6356,-3.6357,-3.6388,-3.6387,-3.6341,-3.6341,-3.6342,-3.6342,0,0,0,0,0,0,0,-3.6434,-3.6435,-3.6443,-3.6421,-3.6416,-3.64,-3.6397,-3.6416,-3.6382,-3.6379,-3.6374,-3.6372,-3.6355,-3.6356,-3.6356,-3.6386,-3.6341,-3.6342,-3.6342,-3.6343,-3.646,-3.6462,0,0,0,0,0,0,-3.644,-3.6435,-3.6444,-3.6442,-3.6419,-3.6402,-3.6399,-3.6404,-3.6381,-3.6376,-3.6374,-3.6369,-3.6355,-3.6355,-3.6355,-3.6415,-3.6342,-3.6343,-3.6344,-3.6457,-3.646,-3.6463,0,0,0,0,0,0,-3.644,-3.6441,-3.6444,-3.6437,-3.6437,-3.6405,-3.6411,-3.6404,-3.6406,-3.6378,-3.6371,-3.6382,-3.6353,-3.6353,-3.6381,-3.6413,-3.6344,-3.6345,-3.6454,-3.6458,-3.6461,-3.6535,0,0,0,0,0,0,-3.644,-3.6442,-3.646,-3.6438,-3.6437,-3.6471,-3.6413,-3.6406,-3.6408,-3.6401,-3.6383,-3.6378,-3.6352,-3.638,-3.6382,-3.6414,-3.6346,-3.6451,-3.6456,-3.646,-3.653,-3.6541,-3.655,0,0,0,0,0,-3.6439,-3.6482,-3.6462,-3.6463,-3.646,-3.6472,-3.6472,-3.644,-3.641,-3.643,-3.6412,-3.6378,-3.6409,-3.6383,-3.6385,-3.6418,-3.6449,-3.6455,-3.646,-3.6525,-3.6538,-3.655,0,0,0,0,0,0,-3.6509,-3.6479,-3.6456,-3.6492,-3.6486,-3.6461,-3.6484,-3.6456,-3.6457,-3.6451,-3.6412,-3.6409,-3.6442,-3.6432,-3.6404,-3.6467,-3.6424,-3.643,-3.6472,-3.6485,-3.6495,-3.6497,-3.6347,0,0,0,0,0,-3.6529,-3.6541,-3.6514,-3.6549,-3.6546,-3.6516,-3.652,-3.6497,-3.6488,-3.6485,-3.6469,-3.6463,-3.6471,-3.6477,-3.6483,-3.6528,-3.6523,-3.6551,-3.6561,-3.657,-3.6576,-3.66,-3.6612,-3.648,-3.648,-3.648,0,0,-3.657,-3.6554,-3.6564,-3.6562,-3.6554,-3.6568,-3.6514,-3.6531,-3.6541,-3.6488,-3.6513,-3.6501,-3.6492,-3.6528,-3.6543,-3.6521,-3.6611,-3.6577,-3.6584,-3.6585,-3.6606,-3.6619,-3.663,-3.6484,-3.6483,-3.6483,0,0,-3.6651,-3.6641,-3.6669,-3.6662,-3.665,-3.663,-3.6637,-3.6617,-3.6607,-3.6632,-3.6592,-3.6604,-3.6619,-3.6614,-3.6613,-3.6694,-3.6664,-3.6697,-3.6751,-3.6774,-3.6785,-3.6794,-3.6824,-3.6835,-3.6703,-3.6703,-3.6703,0,-3.6704,-3.6723,-3.6687,-3.6707,-3.6708,-3.666,-3.6689,-3.6684,-3.6675,-3.6677,-3.6652,-3.667,-3.666,-3.6695,-3.6715,-3.6716,-3.6723,-3.6699,-3.6786,-3.6795,-3.6803,-3.6831,-3.6842,-3.6707,-3.6707,-3.6706,-3.6706,0,-3.6788,-3.6802,-3.6827,-3.6819,-3.6822,-3.6847,-3.6816,-3.6824,-3.68,-3.6783,-3.6809,-3.6795,-3.6798,-3.6804,-3.6781,-3.6837,-3.6823,-3.6793,-3.6749,-3.682,-3.6846,-3.6856,-3.6713,-3.6711,-3.671,-3.6709,0,0,-3.6913,-3.6886,-3.6896,-3.6892,-3.6876,-3.6887,-3.6909,-3.6911,-3.6919,-3.6915,-3.6934,-3.6948,-3.6919,-3.6919,-3.6895,-3.6915,-3.6981,-3.6882,-3.6881,-3.6902,-3.7043,-3.7067,-3.708,-3.6961,-3.6963,-3.6964,-3.7044,0,-3.6991,-3.7028,-3.6997,-3.704,-3.7053,-3.7007,-3.7027,-3.702,-3.7004,-3.7014,-3.6996,-3.7007,-3.6969,-3.6968,-3.6986,-3.697,-3.7009,-3.6963,-3.6979,-3.698,-3.6984,-3.7093,-3.7118,-3.7194,-3.7054,-3.7055,-3.7056,0,-3.7087,-3.7087,-3.7131,-3.7113,-3.7117,-3.7136,-3.7136,-3.7145,-3.7136,-3.7123,-3.7123,-3.7094,-3.7115,-3.7072,-3.7101,-3.7071,-3.7075,-3.7068,-3.707,-3.7071,-3.7023,-3.7098,-3.7217,-3.7229,-3.7072,-3.7071,-3.7069,0,-3.7175,-3.7186,-3.7214,-3.7212,-3.7191,-3.7206,-3.7198,-3.7186,-3.719,-3.719,-3.7193,-3.7196,-3.7198,-3.7201,-3.7173,-3.7144,-3.7207,-3.7161,-3.7198,-3.7199,-3.7214,-3.7214,-3.7337,-3.7216,-3.7216,-3.7216,-3.7215,0,-3.7266,-3.7295,-3.7254,-3.7271,-3.7302,-3.7267,-3.7299,-3.7287,-3.7277,-3.7292,-3.7253,-3.7267,-3.723,-3.7241,-3.7219,-3.7248,-3.7249,-3.724,-3.7234,-3.7244,-3.7246,-3.7247,-3.7242,-3.7219,-3.7218,-3.7217,-3.7217,0,-3.737,-3.7343,-3.7371,-3.7349,-3.7344,-3.7369,-3.735,-3.7366,-3.7347,-3.7367,-3.7369,-3.7341,-3.7352,-3.7325,-3.7332,-3.7317,-3.7359,-3.7344,-3.7362,-3.7358,-3.7397,-3.7394,-3.7526,-3.7542,-3.741,-3.7412,-3.7413,0,-3.743,-3.7452,-3.7432,-3.7439,-3.7433,-3.7444,-3.7448,-3.7414,-3.742,-3.7412,-3.7429,-3.7436,-3.7441,-3.7461,-3.7441,-3.7447,-3.7432,-3.7478,-3.7433,-3.7443,-3.7434,-3.7434,-3.7436,-3.7488,-3.749,-3.7491,-3.7492,0,-3.7541,-3.7526,-3.7533,-3.7535,-3.754,-3.754,-3.7538,-3.7546,-3.751,-3.7518,-3.7528,-3.7532,-3.7539,-3.7548,-3.7549,-3.7541,-3.7512,-3.7506,-3.7515,-3.7526,-3.7536,-3.7532,-3.7389,-3.7504,-3.7503,-3.7502,-3.7501,-3.7501,-3.7625,-3.7642,-3.7631,-3.764,-3.7634,-3.7633,-3.7647,-3.763,-3.7639,-3.7642,-3.7621,-3.7637,-3.7628,-3.7626,-3.7622,-3.7634,-3.7613,-3.7626,-3.763,-3.7634,-3.7641,-3.7534,-3.7634,-3.7634,-3.7633,-3.7633,-3.7633,0,-3.7734,-3.7725,-3.7733,-3.7731,-3.7738,-3.7708,-3.7704,-3.7712,-3.7726,-3.772,-3.7725,-3.7738,-3.7746,-3.7728,-3.7733,-3.7747,-3.7733,-3.775,-3.7749,-3.7748,-3.7658,-3.765,-3.776,-3.776,-3.776,-3.776,-3.776,-3.776,-3.7791,-3.7819,-3.7804,-3.7829,-3.7819,-3.7834,-3.7834,-3.7833,-3.7828,-3.7844,-3.7851,-3.7838,-3.7828,-3.7832,-3.7839,-3.7833,-3.7838,-3.7859,-3.7849,-3.7766,-3.7754,-3.7742,-3.7734,-3.786,-3.786,-3.7937,-3.7938,-3.7939]}]]